[[{"header":{"parameterUnit":"m.s-1","parameterCategory":1,"la1":30.2991,"la2":30.254,"lo1":-89.0895,"lo2":-89.0444,"dy":0.0017,"dx":0.0017,"nx":28,"ny":28,"refTime":"2026-02-15T09:00:00:Z","depth":0,"parameterNumber":2,"parameterNumberName":"U-component_of_WINDS"},"data":[0,0,0,0,0,0,0,0,0,0,0,0,0,0,0,0,0,0,0,0,0,0,0,0,0,0,0,0,0,0,0,0,0,0,0,0,0,0,0,0,0,0,0,0,0,0,0,0,0,0,0,0,0,0,0,0,0,0,-0.9758,-0.9758,0,-0.9807,-0.9807,-0.9808,-0.9829,-0.9829,-0.9829,-0.9829,-0.9881,-0.9882,-0.9884,0,0,0,0,0,0,0,0,0,0,0,0,0,-0.9687,-0.9688,-0.9758,-0.9759,-0.9759,-0.9807,-0.9807,-0.9808,-0.9829,-0.9829,-0.9829,-0.9828,-0.9881,-0.9882,-0.9884,0,0,0,0,0,0,0,0,0,0,0,0,0,-0.9725,-0.9689,-0.9758,-0.9775,-0.9777,-0.9807,-0.9807,-0.9808,-0.9829,-0.9829,-0.9829,-0.9828,-0.988,-0.9882,-0.9884,-0.9901,0,0,-0.9891,-0.9892,0,0,0,0,0,0,0,0,-0.9723,-0.9728,-0.9772,-0.9774,-0.9776,-0.9812,-0.9802,-0.9839,-0.9829,-0.9809,-0.9829,-0.9828,-0.9858,-0.9862,-0.9872,-0.9903,-0.9906,-0.9891,-0.9893,-0.9894,-0.9894,0,0,0,0,0,0,0,-0.972,-0.9726,-0.9777,-0.9773,-0.9775,-0.9782,-0.9787,-0.9809,-0.9834,-0.9811,-0.9813,-0.9818,-0.9859,-0.987,-0.9873,-0.9906,-0.9891,-0.9893,-0.9895,-0.9895,-0.9958,-0.9958,0,0,0,0,0,0,-0.9714,-0.9723,-0.9776,-0.9779,-0.9749,-0.9783,-0.9789,-0.98,-0.9834,-0.9839,-0.9818,-0.9819,-0.9866,-0.9871,-0.9875,-0.9899,-0.9894,-0.9896,-0.9897,-0.9958,-0.9958,-0.9958,0,0,0,0,0,0,-0.9713,-0.9719,-0.9774,-0.9752,-0.9759,-0.9785,-0.9797,-0.9801,-0.9812,-0.9839,-0.9844,-0.9824,-0.9866,-0.9872,-0.9895,-0.9901,-0.9897,-0.9899,-0.9957,-0.9958,-0.9958,-0.9946,0,0,0,0,0,0,-0.971,-0.9718,-0.9723,-0.9751,-0.976,-0.9791,-0.9797,-0.9803,-0.9815,-0.9817,-0.9846,-0.985,-0.9866,-0.9892,-0.9897,-0.9904,-0.99,-0.9957,-0.9958,-0.9958,-0.9946,-0.9946,-0.9946,0,0,0,0,0,-0.9708,-0.9717,-0.9723,-0.973,-0.9767,-0.9792,-0.9797,-0.9814,-0.9815,-0.9822,-0.984,-0.9849,-0.9899,-0.9894,-0.99,-0.9908,-0.9957,-0.9957,-0.9958,-0.9946,-0.9946,-0.9946,0,0,0,0,0,0,-0.9689,-0.9721,-0.9728,-0.9747,-0.9766,-0.9795,-0.9804,-0.9813,-0.9833,-0.9834,-0.9855,-0.9862,-0.9884,-0.9898,-0.9891,-0.9928,-0.9929,-0.9931,-0.9917,-0.9918,-0.9918,-0.9914,-0.9902,0,0,0,0,0,-0.9687,-0.9703,-0.9731,-0.9745,-0.9754,-0.9777,-0.9789,-0.9801,-0.9822,-0.9831,-0.985,-0.9872,-0.9893,-0.9906,-0.9926,-0.9948,-0.9956,-0.9957,-0.9957,-0.9957,-0.9959,-0.9975,-0.9976,-0.9961,-0.9961,-0.9961,0,0,-0.9683,-0.9703,-0.9712,-0.9742,-0.9758,-0.9776,-0.9784,-0.9802,-0.9816,-0.9833,-0.9857,-0.9872,-0.9898,-0.9921,-0.9932,-0.9934,-0.9965,-0.9958,-0.9957,-0.9959,-0.9975,-0.9977,-0.9978,-0.9961,-0.9961,-0.9961,0,0,-0.9686,-0.9701,-0.9716,-0.9733,-0.9758,-0.9774,-0.9777,-0.9805,-0.9816,-0.984,-0.9854,-0.9872,-0.9907,-0.9925,-0.9939,-0.9952,-0.9963,-0.9958,-0.9959,-0.9974,-0.9975,-0.9976,-0.9984,-0.9986,-0.996,-0.996,-0.996,0,-0.9678,-0.9705,-0.9723,-0.9741,-0.9755,-0.9771,-0.9788,-0.9804,-0.9834,-0.9844,-0.9845,-0.9892,-0.991,-0.9939,-0.9943,-0.9952,-0.9959,-0.9955,-0.9973,-0.9975,-0.9976,-0.9983,-0.9986,-0.9959,-0.996,-0.996,-0.996,0,-0.9695,-0.9714,-0.9723,-0.9752,-0.9768,-0.9784,-0.9807,-0.982,-0.9832,-0.9848,-0.9874,-0.9897,-0.9924,-0.9931,-0.9942,-0.9964,-0.9964,-0.9969,-0.9971,-0.9977,-0.9984,-0.9987,-0.9959,-0.9959,-0.9959,-0.9959,0,0,-0.9686,-0.9727,-0.973,-0.9745,-0.9775,-0.9791,-0.981,-0.9836,-0.9849,-0.987,-0.9888,-0.9919,-0.9925,-0.994,-0.9954,-0.9967,-0.998,-0.9971,-0.9972,-0.9974,-1.0008,-1.0005,-1.0008,-0.9987,-0.9987,-0.9988,-1.0007,0,-0.9694,-0.9728,-0.9746,-0.9773,-0.9792,-0.981,-0.9827,-0.9849,-0.9865,-0.9885,-0.9904,-0.9926,-0.993,-0.9941,-0.9954,-0.9975,-0.9987,-0.9974,-1.0006,-1.0007,-1.0001,-1.0011,-1.0008,-1.0025,-1.0009,-1.001,-1.001,0,-0.9707,-0.9729,-0.9758,-0.9789,-0.9798,-0.9812,-0.984,-0.9858,-0.9884,-0.9895,-0.9914,-0.9928,-0.9952,-0.9952,-0.9987,-0.9977,-0.9992,-1.0005,-1.0006,-1.001,-1.001,-1.0018,-1.003,-1.0033,-1.0014,-1.0014,-1.0014,0,-0.97,-0.9737,-0.976,-0.9772,-0.9807,-0.9818,-0.9834,-0.986,-0.9876,-0.99,-0.9911,-0.9938,-0.9953,-0.9974,-0.9996,-0.9994,-1.003,-1.0031,-1.0042,-1.0042,-1.0049,-1.0049,-1.0066,-1.0056,-1.0056,-1.0056,-1.0056,0,-0.9708,-0.9725,-0.9757,-0.9771,-0.9793,-0.9815,-0.9836,-0.9853,-0.9877,-0.9897,-0.9913,-0.9932,-0.9959,-0.9982,-0.9999,-1.0027,-1.0033,-1.0045,-1.005,-1.0044,-1.0043,-1.0055,-1.0055,-1.0057,-1.0056,-1.0056,-1.0056,0,-0.9703,-0.9725,-0.9752,-0.9784,-0.9793,-0.9808,-0.9837,-0.9853,-0.9871,-0.9896,-0.9903,-0.9932,-0.996,-0.9984,-1.002,-1.0033,-1.0062,-1.0067,-1.0053,-1.0056,-1.0067,-1.0066,-1.0093,-1.0099,-1.0083,-1.0083,-1.0084,0,-0.9707,-0.9721,-0.9756,-0.977,-0.9786,-0.9808,-0.9825,-0.9848,-0.9865,-0.9898,-0.991,-0.9939,-0.9964,-1.0008,-1.0034,-1.0063,-1.007,-1.0077,-1.0074,-1.007,-1.0073,-1.0072,-1.0075,-1.0078,-1.0078,-1.0078,-1.0078,0,-0.9713,-0.9723,-0.9746,-0.9773,-0.9792,-0.9815,-0.9838,-0.9849,-0.9878,-0.9896,-0.9925,-0.9944,-0.9983,-1.0012,-1.0045,-1.0063,-1.0077,-1.0079,-1.0083,-1.0078,-1.0071,-1.0078,-1.0055,-1.0078,-1.0078,-1.0078,-1.0078,-1.0078,-0.9714,-0.9729,-0.9756,-0.9782,-0.9802,-0.9824,-0.9841,-0.9862,-0.9886,-0.9919,-0.9932,-0.9962,-0.9992,-1.0037,-1.0056,-1.0081,-1.0083,-1.0089,-1.0091,-1.0093,-1.0093,-1.0066,-1.0087,-1.0087,-1.0087,-1.0087,-1.0087,0,-0.9722,-0.9741,-0.9764,-0.9797,-0.9818,-0.9828,-0.9855,-0.9872,-0.9898,-0.9924,-0.9949,-0.9984,-1.0014,-1.0043,-1.0075,-1.009,-1.0097,-1.0098,-1.0098,-1.0103,-1.0088,-1.0082,-1.0092,-1.0092,-1.0092,-1.0092,-1.0092,-1.0092,-0.9729,-0.9755,-0.9769,-0.9807,-0.9827,-0.9856,-0.9871,-0.9893,-0.9914,-0.9952,-0.9977,-0.9996,-1.0024,-1.0059,-1.0088,-1.0096,-1.0108,-1.0108,-1.0118,-1.0104,-1.0103,-1.0102,-1.0097,-1.011,-1.011,-1.0131,-1.0131,-1.0131]},{"header":{"parameterUnit":"m.s-1","parameterCategory":1,"la1":30.2991,"la2":30.254,"lo1":-89.0895,"lo2":-89.0444,"dy":0.0017,"dx":0.0017,"nx":28,"ny":28,"refTime":"2026-02-15T09:00:00:Z","depth":0,"parameterNumber":3,"parameterNumberName":"V-component_of_WINDS"},"data":[0,0,0,0,0,0,0,0,0,0,0,0,0,0,0,0,0,0,0,0,0,0,0,0,0,0,0,0,0,0,0,0,0,0,0,0,0,0,0,0,0,0,0,0,0,0,0,0,0,0,0,0,0,0,0,0,0,0,0.9936,0.9934,0,0.9701,0.9698,0.9695,0.9549,0.9549,0.9548,0.9547,0.9294,0.9288,0.9282,0,0,0,0,0,0,0,0,0,0,0,0,0,1.0248,1.0243,0.9936,0.9934,0.9931,0.9701,0.9698,0.9695,0.955,0.9549,0.9548,0.9547,0.9296,0.9289,0.9282,0,0,0,0,0,0,0,0,0,0,0,0,0,1.0073,1.0242,0.9937,0.9831,0.9819,0.9702,0.9698,0.9694,0.955,0.9549,0.9548,0.9547,0.9299,0.929,0.9281,0.9247,0,0,0.9253,0.9249,0,0,0,0,0,0,0,0,1.0083,1.0061,0.9849,0.9838,0.9824,0.9654,0.9715,0.9544,0.955,0.9652,0.9547,0.9546,0.9414,0.9395,0.9353,0.9235,0.9224,0.9252,0.9247,0.9243,0.924,0,0,0,0,0,0,0,1.0095,1.0071,0.9843,0.9846,0.9831,0.9791,0.9765,0.9682,0.9541,0.9643,0.9632,0.9606,0.9407,0.9362,0.9346,0.9221,0.9253,0.9244,0.9239,0.9235,0.9058,0.9059,0,0,0,0,0,0,1.0126,1.0082,0.985,0.9836,0.9954,0.9786,0.9757,0.9709,0.9542,0.9516,0.9608,0.96,0.9378,0.9357,0.9337,0.9283,0.9243,0.9234,0.9229,0.9058,0.9058,0.9059,0,0,0,0,0,0,1.0133,1.0107,0.986,0.9956,0.9921,0.9782,0.973,0.9705,0.9661,0.9516,0.9489,0.9589,0.9377,0.9349,0.927,0.9272,0.923,0.9222,0.9057,0.9058,0.9059,0.9178,0,0,0,0,0,0,1.0143,1.011,1.0099,0.9957,0.9917,0.9802,0.973,0.9702,0.9647,0.9635,0.9491,0.9466,0.9374,0.9285,0.9261,0.9259,0.9215,0.9056,0.9057,0.9059,0.9174,0.9183,0.9192,0,0,0,0,0,1.0154,1.014,1.0099,1.0072,0.9901,0.9802,0.9779,0.9677,0.9648,0.9633,0.9539,0.947,0.9277,0.9278,0.925,0.9245,0.9055,0.9057,0.9058,0.9169,0.9181,0.9192,0,0,0,0,0,0,1.0283,1.012,1.0072,1.0013,0.9923,0.9778,0.9757,0.9693,0.9607,0.9599,0.9472,0.9441,0.9373,0.9301,0.9305,0.9202,0.9157,0.9154,0.9251,0.9262,0.9271,0.9288,0.9207,0,0,0,0,0,1.0305,1.0243,1.0102,1.0063,1.002,0.9897,0.985,0.978,0.9679,0.964,0.954,0.9443,0.9359,0.9306,0.9222,0.9163,0.9127,0.9146,0.9155,0.9163,0.916,0.912,0.9125,0.9065,0.9065,0.9065,0,0,1.0349,1.0252,1.022,1.0086,1.0008,0.9942,0.9866,0.98,0.9748,0.9628,0.9548,0.9472,0.9353,0.9284,0.9248,0.9221,0.9169,0.9165,0.9173,0.9165,0.9122,0.9128,0.9133,0.9066,0.9066,0.9065,0,0,1.0394,1.0317,1.0274,1.0198,1.0082,1.0,0.999,0.9854,0.98,0.9718,0.9626,0.956,0.9421,0.934,0.928,0.9294,0.9225,0.927,0.9316,0.9278,0.9283,0.9286,0.9287,0.929,0.9268,0.9268,0.9268,0,1.0462,1.0363,1.0259,1.0198,1.014,1.0033,0.9986,0.9915,0.9777,0.9737,0.9711,0.9532,0.9445,0.9353,0.9357,0.9313,0.9294,0.9284,0.9292,0.9294,0.9295,0.9295,0.9296,0.9274,0.9273,0.9273,0.9272,0,1.045,1.0382,1.0361,1.0233,1.0173,1.012,1.0003,0.9954,0.9888,0.9808,0.9723,0.9616,0.9506,0.9479,0.9413,0.9376,0.9363,0.9317,0.9269,0.9309,0.9306,0.9305,0.9283,0.928,0.9279,0.9277,0,0,1.0568,1.0385,1.0378,1.0317,1.0181,1.0125,1.0064,0.9961,0.9919,0.9827,0.977,0.9654,0.9609,0.9542,0.9465,0.9432,0.9445,0.9388,0.9383,0.9399,0.9393,0.9428,0.943,0.94,0.94,0.94,0.9402,0,1.0591,1.0482,1.0386,1.031,1.0244,1.014,1.0087,0.9995,0.9918,0.9847,0.9759,0.9678,0.9627,0.9585,0.9548,0.9452,0.9442,0.9451,0.9341,0.9338,0.9372,0.9429,0.9465,0.9473,0.9401,0.9401,0.94,0,1.0603,1.0518,1.0437,1.0305,1.0273,1.0228,1.0124,1.0059,0.9951,0.9897,0.9822,0.9743,0.9669,0.9631,0.9525,0.9534,0.9483,0.9429,0.9426,0.941,0.937,0.941,0.9474,0.9474,0.9398,0.9398,0.9399,0,1.0694,1.0559,1.0491,1.0443,1.0289,1.0259,1.0192,1.0084,1.0027,0.9935,0.9896,0.9795,0.9739,0.9661,0.9554,0.9537,0.9458,0.9412,0.9406,0.9409,0.9392,0.9394,0.9445,0.9365,0.9365,0.9365,0.9365,0,1.0727,1.0681,1.053,1.0489,1.0432,1.032,1.0265,1.0189,1.0094,1.0032,0.9935,0.9878,0.9743,0.9668,0.9584,0.9507,0.9483,0.9433,0.9411,0.944,0.9446,0.9403,0.9398,0.9365,0.9365,0.9365,0.9365,0,1.0818,1.0716,1.0636,1.0497,1.0461,1.0425,1.0303,1.0257,1.0175,1.0097,1.0073,0.9942,0.9849,0.9736,0.9606,0.9549,0.9478,0.9446,0.9516,0.9502,0.9502,0.9502,0.9524,0.9519,0.9448,0.9448,0.9449,0,1.0845,1.0807,1.0665,1.0619,1.0556,1.0483,1.0425,1.0312,1.0255,1.0129,1.0096,0.9997,0.9911,0.9767,0.9657,0.9556,0.9518,0.9533,0.9502,0.9532,0.9514,0.9517,0.951,0.954,0.9542,0.9543,0.9544,0,1.0902,1.0854,1.0776,1.0681,1.0615,1.0533,1.0447,1.0413,1.0282,1.0222,1.0128,1.0062,0.993,0.9831,0.9716,0.9641,0.9569,0.9555,0.9547,0.9576,0.9616,0.9591,0.9535,0.9554,0.9553,0.9552,0.9552,0.9551,1.0959,1.0919,1.0813,1.0729,1.0653,1.0574,1.0523,1.0435,1.0357,1.0243,1.0181,1.0087,0.9976,0.9815,0.9743,0.9665,0.9639,0.963,0.9626,0.9625,0.9632,0.9632,0.9644,0.9644,0.9643,0.9643,0.9642,0,1.1008,1.0935,1.0859,1.0743,1.0676,1.0619,1.0519,1.0465,1.0386,1.0291,1.021,1.0099,1.0002,0.9886,0.978,0.9739,0.9703,0.9715,0.9715,0.9698,0.9663,0.9679,0.9746,0.9746,0.9746,0.9746,0.9746,0.9746,1.1026,1.0955,1.0894,1.0782,1.0708,1.0619,1.0567,1.0492,1.0415,1.0298,1.0219,1.0145,1.0039,0.9924,0.9831,0.9799,0.9762,0.9784,0.9741,0.971,0.9701,0.9692,0.9706,0.9778,0.9778,0.9781,0.9781,0.9782]}]]